Location: Unspecified
(0.0000°N, 0.0000°E)
Time: 01:40:42
(UTC+00:00)

ARGOS - Pass Details

Date: 12 July 2022
Orbit: 819 x 835 km, 98.4° (Epoch: 14 August)

Event Time Altitude Azimuth Distance (km) Brightness Sun altitude
Rises 18:48:49 0° 183° (S) 3,365 6.1 -10.0°
Reaches altitude 10° 18:51:19 10° 191° (S) 2,432 5.5 -10.6°
Maximum altitude 18:56:16 37° 257° (WSW) 1,258 4.7 -11.7°
Drops below altitude 10° 19:01:13 10° 324° (NW) 2,432 6.5 -12.9°
Sets 19:03:43 0° 332° (NNW) 3,364 7.2 -13.4°
